This is the latest recevied weather packets stored in our database for station/object SQ8AQX-13. If no packets are shown the sender has not sent any weather packets the latest 10 day(s).
| Time | Temp. | Humidity | Pressure | Rain* | Wind** | Luminosity | Snow |
|---|---|---|---|---|---|---|---|
| 1777815816 | 24.44° C | 24% | 1019.7 hPa | - | - | - | - |
| 1777815216 | 23.89° C | 25% | 1019.7 hPa | - | - | - | - |
| 1777814616 | 23.89° C | 25% | 1019.9 hPa | - | - | - | - |
| 1777814016 | 23.89° C | 27% | 1019.9 hPa | - | - | - | - |
| 1777812215 | 23.89° C | 25% | 1020.4 hPa | - | - | - | - |
| 1777811615 | 23.89° C | 27% | 1020.5 hPa | - | - | - | - |
| 1777811015 | 23.89° C | 27% | 1020.5 hPa | - | - | - | - |
| 1777808014 | 23.33° C | 30% | 1021 hPa | - | - | - | - |
| 1777807414 | 22.78° C | 31% | 1021 hPa | - | - | - | - |
| 1777806814 | 22.78° C | 30% | 1021.2 hPa | - | - | - | - |
| 1777806214 | 22.78° C | 32% | 1021.3 hPa | - | - | - | - |
| 1777804413 | 22.22° C | 32% | 1021.6 hPa | - | - | - | - |
| 1777803813 | 22.22° C | 32% | 1021.8 hPa | - | - | - | - |
| 1777803213 | 21.67° C | 32% | 1022 hPa | - | - | - | - |
| 1777801412 | 21.67° C | 35% | 1022.2 hPa | - | - | - | - |
| 1777800812 | 21.11° C | 33% | 1022.3 hPa | - | - | - | - |
| 1777800212 | 21.11° C | 33% | 1022.4 hPa | - | - | - | - |
| 1777798412 | 20° C | 35% | 1022.7 hPa | - | - | - | - |
| 1777797812 | 20° C | 36% | 1022.8 hPa | - | - | - | - |
| 1777797212 | 20° C | 36% | 1022.8 hPa | - | - | - | - |
| 1777794812 | 18.33° C | 40% | 1023 hPa | - | - | - | - |
| 1777794212 | 18.33° C | 36% | 1022.9 hPa | - | - | - | - |
| 1777793611 | 18.33° C | 37% | 1022.9 hPa | - | - | - | - |
| 1777791811 | 17.78° C | 39% | 1023 hPa | - | - | - | - |
| 1777791211 | 17.22° C | 40% | 1023 hPa | - | - | - | - |
* Rain since midnight (hover to see other rain measurements)
** Current wind speed in m/s (hover to see current wind gust speed)